Preview of NWS' New Version of Forecast
This preview is not operational and should not be used for support decisions.

Regional Weather Roundup (RWR)

Issued by National Weather Service (NWS)

                            
000
ASUS45 KBOI 221910
RWRID 

IDAHO REGIONAL WEATHER ROUNDUP
NATIONAL WEATHER SERVICE BOISE ID
1200 PM MST FRI FEB 22 2019

NOTE: "FAIR" INDICATES FEW OR NO CLOUDS BELOW 12000 FEET
WITH NO SIGNIFICANT WEATHER AND/OR OBSTRUCTIONS TO VISIBILITY

IDZ012-014-222000-
SOUTHWEST IDAHO

  
CITY           SKY/WX    TMP DP  RH WIND       PRES   REMARKS
BOISE          PTSUNNY   30  16  56 CALM      30.08F                  
CALDWELL       PTSUNNY   33  20  58 NE6       30.12S WCI  28          
MOUNTAIN HOME  MOSUNNY   27  27 100 NW5       30.09S WCI  22          
$$

IDZ016-017-222000-
SOUTHCENTRAL IDAHO

  
CITY           SKY/WX    TMP DP  RH WIND       PRES   REMARKS
BURLEY         CLOUDY    23  16  74 W10       30.01S WCI  12          
JEROME         CLOUDY    22  17  81 SW9       30.03S WCI  12          
TWIN FALLS     SUNNY     24  16  71 W13       30.03S WCI  12          
$$

IDZ019>023-222000-
SOUTHEAST IDAHO

  
CITY           SKY/WX    TMP DP  RH WIND       PRES   REMARKS
IDAHO FALLS    SUNNY      9   4  80 W6        30.00R WCI  -1          
POCATELLO      CLOUDY    21  13  71 CALM      30.02R                  
REXBURG        SUNNY     12   1  61 CALM      29.98R                  
$$

IDZ006-010-011-018-031-032-222000-
CENTRAL IDAHO MOUNTAINS

  
CITY           SKY/WX    TMP DP  RH WIND       PRES   REMARKS
MCCALL         MOSUNNY    9   8  96 S3        29.92F                  
HAILEY         SUNNY     14   1  57 SE5       29.96R WCI   6          
STANLEY          N/A     -1  -7  75 CALM      29.90F                  
SALMON         SUNNY     13   2  61 CALM      30.02F                  
CHALLIS        SUNNY     12  -1  56 CALM      29.95F                  
$$

IDZ002-004-006-007-026-222000-
NORTHERN IDAHO

  
CITY           SKY/WX    TMP DP  RH WIND       PRES   REMARKS
LEWISTON       MOSUNNY   25  16  68 E10       30.07F WCI  15          
LOWELL           N/A     31  21  66 VRB5      30.08F WCI  26          
COEUR D'ALENE  CLOUDY    26  18  71 S9        30.00S WCI  17          
MULLAN PASS    PTSUNNY   15  11  83 VRB6      29.77S FOG     WCI   6  
$$